• In France
  • List of Countries
  • For 7 days
  • Water Temperature
  • Satellite Maps
  • Weather Map
  • Weather Widgets
  • user-avatar
    Login

    Hourly Weather Byala

    Today, 18 November, Saturday

    Time Temperature Precipitation Wind Pressure Humidity
    00:00 +11°C° 0.4 mm 4 mps 753 mmHg 94%
    01:00 +11°C° 0.4 mm 4 mps 753 mmHg 94%
    02:00 +10°C° 0 mm 4 mps 753 mmHg 92%
    03:00 +10°C° 1 mm 4 mps 752 mmHg 92%
    04:00 +10°C° 1 mm 4 mps 752 mmHg 92%
    05:00 +10°C° 1 mm 4 mps 752 mmHg 93%
    06:00 +10°C° 1.2 mm 4 mps 752 mmHg 93%
    07:00 +10°C° 1.2 mm 4 mps 751 mmHg 93%
    08:00 +10°C° 1.2 mm 4 mps 751 mmHg 93%
    09:00 +11°C° 1.1 mm 4 mps 751 mmHg 92%
    10:00 +11°C° 1.1 mm 4 mps 751 mmHg 90%
    11:00 +11°C° 1.1 mm 4 mps 751 mmHg 89%
    12:00 +11°C° 0.5 mm 3 mps 751 mmHg 87%
    13:00 +12°C° 0.5 mm 3 mps 750 mmHg 85%
    14:00 +12°C° 0.5 mm 3 mps 750 mmHg 84%
    15:00 +11°C° 0 mm 3 mps 750 mmHg 85%
    16:00 +11°C° 0 mm 3 mps 750 mmHg 86%
    17:00 +10°C° 0 mm 3 mps 750 mmHg 87%
    18:00 +10°C° 0 mm 4 mps 750 mmHg 88%
    19:00 +8°C° 0 mm 4 mps 750 mmHg 89%
    20:00 +8°C° 0 mm 4 mps 750 mmHg 91%
    21:00 +8°C° 0 mm 4 mps 750 mmHg 91%
    22:00 +7°C° 0 mm 4 mps 749 mmHg 91%
    23:00 +7°C° 0 mm 4 mps 749 mmHg 92%

    Tomorrow, 19 November, Sunday

    Time Temperature Precipitation Wind Pressure Humidity
    00:00 +7°C° 0 mm 4 mps 749 mmHg 92%
    01:00 +7°C° 0 mm 4 mps 749 mmHg 92%
    02:00 +7°C° 0 mm 4 mps 749 mmHg 93%
    03:00 +7°C° 0.1 mm 4 mps 749 mmHg 92%
    04:00 +7°C° 0.1 mm 4 mps 749 mmHg 92%
    05:00 +6°C° 0.1 mm 4 mps 749 mmHg 92%
    06:00 +6°C° 0.1 mm 4 mps 749 mmHg 92%
    07:00 +6°C° 0.1 mm 4 mps 749 mmHg 91%
    08:00 +7°C° 0.1 mm 3 mps 749 mmHg 90%
    09:00 +9°C° 0.1 mm 3 mps 749 mmHg 84%
    10:00 +10°C° 0.1 mm 3 mps 749 mmHg 78%
    11:00 +11°C° 0.1 mm 3 mps 749 mmHg 71%
    12:00 +11°C° 0.1 mm 3 mps 749 mmHg 70%
    13:00 +11°C° 0.1 mm 3 mps 748 mmHg 69%
    14:00 +11°C° 0.1 mm 3 mps 748 mmHg 68%
    15:00 +10°C° 0.8 mm 3 mps 748 mmHg 72%
    16:00 +10°C° 0.8 mm 3 mps 748 mmHg 76%
    17:00 +9°C° 0.8 mm 3 mps 747 mmHg 79%
    18:00 +9°C° 1.2 mm 3 mps 747 mmHg 80%
    19:00 +9°C° 1.2 mm 3 mps 747 mmHg 81%
    20:00 +8°C° 1.2 mm 3 mps 747 mmHg 82%
    21:00 +8°C° 1.3 mm 3 mps 747 mmHg 80%
    22:00 +7°C° 1.3 mm 4 mps 747 mmHg 78%
    23:00 +7°C° 1.3 mm 4 mps 747 mmHg 75%

    Day after tomorrow, 20 November, Monday

    Time Temperature Precipitation Wind Pressure Humidity
    00:00 +7°C° 0.8 mm 4 mps 747 mmHg 74%
    01:00 +6°C° 0.8 mm 5 mps 747 mmHg 72%
    02:00 +6°C° 0.8 mm 5 mps 747 mmHg 71%
    03:00 +5°C° 0 mm 6 mps 747 mmHg 72%
    04:00 +4°C° 0 mm 6 mps 747 mmHg 73%
    05:00 +4°C° 0 mm 6 mps 747 mmHg 74%
    06:00 +4°C° 0 mm 6 mps 748 mmHg 75%
    07:00 +4°C° 0 mm 6 mps 748 mmHg 75%
    08:00 +3°C° 0 mm 6 mps 749 mmHg 75%
    09:00 +4°C° 0.1 mm 6 mps 749 mmHg 72%
    10:00 +5°C° 0.1 mm 6 mps 749 mmHg 68%
    11:00 +5°C° 0.1 mm 6 mps 749 mmHg 65%
    12:00 +5°C° 0.3 mm 7 mps 749 mmHg 65%
    13:00 +5°C° 0.3 mm 7 mps 749 mmHg 64%
    14:00 +5°C° 0.3 mm 8 mps 749 mmHg 64%
    15:00 +5°C° 0.1 mm 8 mps 749 mmHg 66%
    16:00 +5°C° 0.1 mm 8 mps 749 mmHg 67%
    17:00 +5°C° 0.1 mm 7 mps 750 mmHg 69%
    18:00 +4°C° 0 mm 7 mps 750 mmHg 71%
    19:00 +4°C° 0 mm 7 mps 750 mmHg 72%
    20:00 +3°C° 0 mm 7 mps 751 mmHg 74%
    21:00 +3°C° 0 mm 7 mps 751 mmHg 73%
    22:00 +3°C° 0 mm 7 mps 752 mmHg 73%
    23:00 +2°C° 0 mm 7 mps 752 mmHg 72%

    21 November, Tuesday

    Time Temperature Precipitation Wind Pressure Humidity
    00:00 +2°C° 0 mm 7 mps 752 mmHg 74%
    01:00 +2°C° 0 mm 7 mps 752 mmHg 75%
    02:00 0°C° 0 mm 7 mps 753 mmHg 76%
    03:00 0°C° 0 mm 7 mps 753 mmHg 77%
    04:00 +1°C° 0 mm 6 mps 753 mmHg 78%
    05:00 +1°C° 0 mm 6 mps 753 mmHg 79%
    06:00 +1°C° 0 mm 6 mps 753 mmHg 78%
    07:00 +1°C° 0 mm 6 mps 754 mmHg 78%
    08:00 +1°C° 0 mm 6 mps 754 mmHg 77%
    09:00 +2°C° 0 mm 6 mps 754 mmHg 70%
    10:00 +3°C° 0 mm 6 mps 754 mmHg 62%
    11:00 +5°C° 0 mm 6 mps 754 mmHg 55%
    12:00 +7°C° 0 mm 6 mps 753 mmHg 51%
    13:00 +7°C° 0 mm 6 mps 753 mmHg 48%
    14:00 +8°C° 0 mm 6 mps 752 mmHg 44%
    15:00 +7°C° 0 mm 6 mps 752 mmHg 47%
    16:00 +7°C° 0 mm 6 mps 752 mmHg 50%
    17:00 +5°C° 0 mm 6 mps 752 mmHg 54%
    18:00 +5°C° 0 mm 6 mps 752 mmHg 56%
    19:00 +5°C° 0 mm 6 mps 752 mmHg 57%
    20:00 +4°C° 0 mm 7 mps 751 mmHg 59%
    21:00 +4°C° 0 mm 7 mps 751 mmHg 62%
    22:00 +4°C° 0 mm 6 mps 751 mmHg 64%
    23:00 +4°C° 0 mm 6 mps 751 mmHg 66%

    22 November, Wednesday

    Time Temperature Precipitation Wind Pressure Humidity
    00:00 +4°C° 0 mm 6 mps 751 mmHg 66%
    01:00 +4°C° 0 mm 6 mps 751 mmHg 66%
    02:00 +4°C° 0 mm 6 mps 751 mmHg 66%
    03:00 +4°C° 0 mm 6 mps 751 mmHg 68%
    04:00 +4°C° 0 mm 6 mps 751 mmHg 70%
    05:00 +4°C° 0 mm 6 mps 751 mmHg 72%
    06:00 +5°C° 0 mm 6 mps 751 mmHg 74%
    07:00 +5°C° 0 mm 6 mps 752 mmHg 75%
    08:00 +5°C° 0 mm 6 mps 752 mmHg 77%
    09:00 +5°C° 0.1 mm 6 mps 753 mmHg 75%
    10:00 +7°C° 0.1 mm 6 mps 753 mmHg 73%
    11:00 +7°C° 0.1 mm 6 mps 754 mmHg 71%
    12:00 +7°C° 0 mm 6 mps 754 mmHg 69%
    13:00 +7°C° 0 mm 5 mps 754 mmHg 66%
    14:00 +7°C° 0 mm 5 mps 755 mmHg 64%
    15:00 +7°C° 0 mm 5 mps 755 mmHg 64%
    16:00 +6°C° 0 mm 4 mps 756 mmHg 64%
    17:00 +6°C° 0 mm 4 mps 756 mmHg 64%
    18:00 +6°C° 0 mm 4 mps 757 mmHg 64%
    19:00 +5°C° 0 mm 3 mps 757 mmHg 64%
    20:00 +5°C° 0 mm 3 mps 758 mmHg 64%
    21:00 +5°C° 0 mm 3 mps 758 mmHg 64%
    22:00 +5°C° 0 mm 2 mps 758 mmHg 64%
    23:00 +5°C° 0 mm 2 mps 758 mmHg 64%

    23 November, Thursday

    Time Temperature Precipitation Wind Pressure Humidity
    00:00 +6°C° 0 mm 1 mps 758 mmHg 65%
    01:00 +6°C° 0 mm 1 mps 759 mmHg 65%
    02:00 +6°C° 0 mm 1 mps 759 mmHg 66%
    03:00 +6°C° 0 mm 1 mps 759 mmHg 66%
    04:00 +6°C° 0 mm 1 mps 759 mmHg 67%
    05:00 +6°C° 0 mm 1 mps 759 mmHg 67%
    06:00 +6°C° 0 mm 1 mps 759 mmHg 68%
    07:00 +6°C° 0 mm 1 mps 759 mmHg 69%
    08:00 +6°C° 0 mm 1 mps 759 mmHg 70%
    09:00 +7°C° 0 mm 2 mps 760 mmHg 67%
    10:00 +8°C° 0 mm 2 mps 760 mmHg 63%
    11:00 +9°C° 0 mm 2 mps 760 mmHg 59%
    12:00 +10°C° 0 mm 2 mps 760 mmHg 59%
    13:00 +12°C° 0 mm 2 mps 760 mmHg 59%
    14:00 +12°C° 0 mm 2 mps 759 mmHg 58%
    15:00 +10°C° 0 mm 2 mps 759 mmHg 63%
    16:00 +10°C° 0 mm 2 mps 759 mmHg 67%
    17:00 +9°C° 0 mm 2 mps 759 mmHg 72%
    18:00 +8°C° 0 mm 3 mps 759 mmHg 74%
    19:00 +8°C° 0 mm 3 mps 760 mmHg 76%
    20:00 +8°C° 0 mm 3 mps 760 mmHg 79%
    21:00 +7°C° 0 mm 3 mps 760 mmHg 80%
    22:00 +7°C° 0 mm 3 mps 760 mmHg 82%
    23:00 +7°C° 0 mm 3 mps 760 mmHg 83%
    Show more